EW9766 Weather Reports


Display with metric or nautical units.
time (UTC)temp
F
wind
direction
speed
MPH
gust
MPH
rain 1hr
in
rain 24hr
in
rain mn
in
humidity
%
barometer
mb
20200330010041 48 271 4.0 0.0 0.00 0.16 0.00 68 1.2
20200330004532 47 244 3.0 0.0 0.00 0.16 0.00 71 1.2
20200330003035 46 231 4.0 0.0 0.00 0.16 0.00 73 1.2
20200330001534 48 250 7.0 0.0 0.00 0.16 0.00 67 1.2
20200330000111 48 227 4.0 0.0 0.00 0.16 0.00 67 1.2
20200329234532 48 216 7.0 0.0 0.00 0.16 0.00 66 1.2
20200329233032 49 230 5.0 0.0 0.00 0.16 0.00 63 1.2
20200329231530 51 242 5.0 0.0 0.00 0.16 0.00 61 1.2
20200329230041 51 251 6.0 0.0 0.01 0.16 0.00 61 1.2
20200329224531 51 264 5.0 0.0 0.01 0.16 0.00 62 1.2
20200329223045 49 228 6.0 0.0 0.01 0.16 0.00 66 1.2
20200329221530 48 229 5.0 0.0 0.01 0.16 0.00 71 1.2
20200329220031 47 244 6.0 0.0 0.00 0.15 0.00 68 1.2
20200329214534 51 249 10.0 0.0 0.00 0.15 0.00 59 1.2
20200329213029 51 244 8.0 0.0 0.00 0.15 0.00 58 1.2
20200329211540 52 244 9.0 0.0 0.00 0.15 0.00 58 1.2
20200329210032 51 265 6.0 0.0 0.00 0.15 0.00 63 1.2
20200329204533 50 201 5.0 0.0 0.00 0.15 0.00 64 1.2
20200329203032 48 221 6.0 0.0 0.00 0.15 0.00 66 1.2
20200329201532 50 244 10.0 0.0 0.00 0.15 0.00 63 1.2
20200329200030 50 260 7.0 0.0 0.00 0.15 0.00 62 1.2
20200329194529 51 246 5.0 0.0 0.00 0.15 0.00 62 1.2
20200329193033 51 210 7.0 0.0 0.00 0.15 0.00 63 1.2
20200329191533 49 203 7.0 0.0 0.00 0.15 0.00 66 1.2
20200329190028 48 210 9.0 0.0 0.00 0.15 0.00 67 1.2
20200329184531 48 214 9.0 0.0 0.00 0.15 0.00 68 1.2
20200329183037 48 229 8.0 0.0 0.00 0.15 0.00 70 1.2
20200329181541 48 241 5.0 0.0 0.00 0.15 0.00 72 1.2
20200329180036 49 219 3.0 0.0 0.00 0.15 0.00 74 1.2
20200329174531 46 237 2.0 0.0 0.00 0.15 0.00 80 1.2
20200329173033 44 168 3.0 0.0 0.00 0.15 0.00 84 1.2
20200329171531 43 146 3.0 0.0 0.01 0.15 0.00 86 1.2
20200329170034 42 136 3.0 0.0 0.02 0.15 0.00 88 1.2
20200329164541 41 133 4.0 0.0 0.03 0.15 0.00 90 1.2
20200329163030 40 130 3.0 0.0 0.03 0.15 0.00 91 1.2
20200329161534 40 153 4.0 0.0 0.03 0.14 0.00 93 1.2
20200329160032 39 30 5.0 0.0 0.03 0.13 0.00 94 1.2
20200329154530 39 50 1.0 0.0 0.03 0.12 0.00 94 1.2
20200329153036 38 41 1.0 0.0 0.06 0.12 0.00 94 1.2
20200329151531 38 22 0.0 0.0 0.07 0.11 0.00 94 1.2
20200329150039 38 22 0.0 0.0 0.07 0.10 0.00 94 1.2
20200329144531 38 43 2.0 0.0 0.08 0.09 0.00 94 1.2
20200329143034 38 24 1.0 0.0 0.06 0.06 0.00 93 1.2
20200329141531 38 25 2.0 0.0 0.04 0.04 0.00 93 1.2
20200329140039 38 37 1.0 0.0 0.03 0.03 0.00 92 1.2
20200329134531 38 65 2.0 0.0 0.01 0.01 0.00 92 1.2
20200329133033 38 2 1.0 0.0 0.00 0.00 0.00 92 1.2
20200329131531 38 41 1.0 0.0 0.00 0.00 0.00 92 1.2
20200329130031 37 56 3.0 0.0 0.00 0.00 0.00 92 1.2
20200329124532 37 267 1.0 0.0 0.00 0.00 0.00 92 1.2
20200329123029 37 183 2.0 0.0 0.00 0.00 0.00 92 1.2
20200329121530 37 342 4.0 0.0 0.00 0.00 0.00 92 1.2
20200329120040 36 288 3.0 0.0 0.00 0.00 0.00 92 1.2
20200329114540 36 191 2.0 0.0 0.00 0.00 0.00 92 1.2
20200329113033 36 76 3.0 0.0 0.00 0.00 0.00 90 1.2
20200329111537 38 150 1.0 0.0 0.00 0.00 0.00 90 1.2
20200329110033 38 195 4.0 0.0 0.00 0.00 0.00 91 1.2
20200329104528 37 136 5.0 0.0 0.00 0.00 0.00 92 1.2
20200329103033 37 129 4.0 0.0 0.00 0.00 0.00 92 1.2
20200329101533 37 194 1.0 0.0 0.00 0.00 0.00 92 1.2
20200329100034 37 180 3.0 0.0 0.00 0.00 0.00 92 1.2
20200329094529 37 147 3.0 0.0 0.00 0.00 0.00 92 1.2
20200329093031 38 195 2.0 0.0 0.00 0.00 0.00 92 1.2
20200329091529 38 250 2.0 0.0 0.00 0.00 0.00 91 1.2
20200329090031 38 312 2.0 0.0 0.00 0.00 0.00 91 1.2
20200329084537 38 218 2.0 0.0 0.00 0.00 0.00 90 1.2
20200329083030 38 159 2.0 0.0 0.00 0.00 0.00 90 1.2
20200329081537 38 124 2.0 0.0 0.00 0.00 0.00 90 1.2
20200329080029 39 167 1.0 0.0 0.00 0.00 0.00 90 1.2
20200329074530 39 263 1.0 0.0 0.00 0.00 0.00 90 1.2
20200329073027 39 236 0.0 0.0 0.00 0.00 0.00 90 1.2
20200329071533 39 181 2.0 0.0 0.00 0.00 0.00 90 1.2
20200329070039 39 168 2.0 0.0 0.00 0.00 0.00 89 1.2
20200329064529 39 169 1.0 0.0 0.00 0.00 0.00 89 1.2
20200329061531 39 90 1.0 0.0 0.00 0.00 0.00 88 1.2
20200329060030 39 112 1.0 0.0 0.00 0.00 0.00 87 1.2
20200329054533 40 196 2.0 0.0 0.00 0.00 0.00 87 1.2
20200329053030 40 228 2.0 0.0 0.00 0.00 0.00 85 1.2
20200329051531 40 123 1.0 0.0 0.00 0.00 0.00 85 1.2
20200329050032 41 106 0.0 0.0 0.00 0.00 0.00 85 1.2
20200329044535 41 190 3.0 0.0 0.00 0.00 0.00 84 1.2
20200329043035 41 334 2.0 0.0 0.00 0.00 0.00 84 1.2
20200329041531 41 338 0.0 0.0 0.00 0.00 0.00 83 1.2
20200329040031 41 246 2.0 0.0 0.00 0.00 0.00 82 1.2
20200329034535 41 42 1.0 0.0 0.00 0.00 0.00 81 1.2
20200329033035 42 29 1.0 0.0 0.00 0.00 0.00 80 1.2
20200329031531 43 13 1.0 0.0 0.00 0.00 0.00 79 1.2
20200329030032 43 30 1.0 0.0 0.00 0.00 0.00 79 1.2
20200329024532 44 39 2.0 0.0 0.00 0.00 0.00 79 1.2
20200329023028 44 45 2.0 0.0 0.00 0.00 0.00 78 1.2
20200329021530 45 18 3.0 0.0 0.00 0.00 0.00 77 1.2
20200329020031 45 30 3.0 0.0 0.00 0.00 0.00 76 1.2
20200329014529 46 20 5.0 0.0 0.00 0.00 0.00 75 1.2
20200329013032 46 8 4.0 0.0 0.00 0.00 0.00 73 1.2
20200329011534 47 66 4.0 0.0 0.00 0.00 0.00 71 1.2